Location: Brno
(49.2000°N, 16.6330°E)
Time: 01:00:38
(UTC+02:00)

ISS - Visible Passes

Search period start: 16 July 2018 00:00
Search period end: 26 July 2018 00:00
Orbit: 402 x 408 km, 51.6° (Epoch: 16 July)

Date Brightness Start Highest point End Pass type
(mag) Time Alt. Az. Time Alt. Az. Time Alt. Az.
16 Jul -3.3 00:59:18 49° E 00:59:18 49° E 01:01:53 10° ENE visible
16 Jul -3.1 02:31:57 10° W 02:35:12 55° N 02:38:27 10° ENE visible
16 Jul -3.6 04:08:36 10° WNW 04:11:55 74° NNE 04:15:13 10° ESE visible
17 Jul -1.9 00:08:36 19° E 00:08:36 19° E 00:09:45 10° ENE visible
17 Jul -3.4 01:41:12 23° W 01:43:03 62° N 01:46:21 10° ENE visible
17 Jul -3.2 03:16:31 10° WNW 03:19:48 60° N 03:23:04 10° E visible
18 Jul -3.8 00:50:13 51° W 00:50:56 78° NNW 00:54:14 10° ENE visible
18 Jul -3.1 02:24:24 10° WNW 02:27:38 54° N 02:30:54 10° E visible
18 Jul -3.9 04:00:57 10° WNW 04:04:15 73° SSW 04:07:32 10° ESE visible
18 Jul -4.0 23:58:12 54° SW 23:58:50 78° SSE 00:02:08 10° ENE visible
19 Jul -3.1 01:32:13 10° W 01:35:28 53° N 01:38:42 10° ENE visible
19 Jul -3.8 03:08:51 10° WNW 03:12:09 81° NNE 03:15:28 10° ESE visible
19 Jul -1.8 21:30:04 10° SSE 21:30:53 11° SE 21:31:43 10° ESE visible
19 Jul -3.8 23:03:34 10° SW 23:06:46 52° SSE 23:09:59 10° ENE visible
20 Jul -3.3 00:40:01 10° W 00:43:17 58° N 00:46:33 10° ENE visible
20 Jul -3.4 02:16:44 10° WNW 02:20:01 64° NNE 02:23:18 10° E visible
20 Jul -3.4 03:53:19 10° WNW 03:56:26 41° SSW 03:59:34 10° SE visible
20 Jul -3.2 22:11:46 10° SSW 22:14:45 33° SSE 22:17:45 10° E visible
20 Jul -3.6 23:47:50 10° W 23:51:06 71° NNW 23:54:24 10° ENE visible
21 Jul -3.1 01:24:35 10° WNW 01:27:50 55° N 01:31:05 10° E visible
21 Jul -3.9 03:01:07 10° WNW 03:04:24 63° SSW 03:07:39 10° SE visible
21 Jul -3.9 22:55:40 10° WSW 22:58:57 88° SSE 23:02:15 10° ENE visible
22 Jul -3.0 00:32:23 10° W 00:35:37 53° N 00:38:51 10° ENE visible
22 Jul -3.9 02:08:59 10° WNW 02:12:17 89° W 02:15:35 10° ESE visible
22 Jul -2.6 03:45:51 10° W 03:48:28 22° SW 03:51:05 10° SSE visible
22 Jul -3.9 22:03:36 10° SW 22:06:50 61° SSE 22:10:05 10° ENE visible
22 Jul -3.1 23:40:09 10° W 23:43:24 56° N 23:46:39 10° ENE visible
23 Jul -3.6 01:16:50 10° WNW 01:20:07 69° NNE 01:20:48 50° ENE visible
23 Jul -3.4 22:47:55 10° W 22:51:10 65° NNW 22:54:27 10° ENE visible
24 Jul -3.3 00:24:38 10° WNW 00:27:54 58° N 00:29:05 34° ENE visible
24 Jul -1.3 02:01:11 10° WNW 02:01:40 13° WNW 02:01:40 13° WNW visible
24 Jul -3.8 21:55:41 10° WSW 21:58:58 83° NNW 22:02:17 10° ENE visible
24 Jul -3.1 23:32:25 10° WNW 23:35:39 53° N 23:38:04 16° ENE visible
25 Jul -2.3 01:09:00 10° WNW 01:10:41 28° WNW 01:10:41 28° WNW visible
25 Jul -3.1 22:40:10 10° W 22:43:24 54° N 22:46:38 10° ENE visible
